Overview Statistics Trail Chart Weather Telemetry Raw packets
 

This is the latest recevied weather packets stored in our database for station/object KC5DAQ-26. If no packets are shown the sender has not sent any weather packets the latest 10 day(s).

<< 14 15 16 17 18 19 20 >>
Time Temp. Humidity Pressure Rain* Wind** Luminosity Snow
1788563044 32.22° C 74% 1015.1 hPa 0 mm - 266 W/m² -
1788562985 32.22° C 74% 1015.2 hPa 0 mm - 278 W/m² -
1788562925 32.22° C 74% 1015.2 hPa 0 mm - 281 W/m² -
1788562864 32.22° C 74% 1015.2 hPa 0 mm - 285 W/m² -
1788562806 32.22° C 74% 1015.1 hPa 0 mm - 288 W/m² -
1788562744 32.22° C 74% 1015.2 hPa 0 mm - 292 W/m² -
1788562686 32.22° C 74% 1015.1 hPa 0 mm - 295 W/m² -
1788562625 32.22° C 74% 1015.2 hPa 0 mm - 301 W/m² -
1788562564 31.67° C 74% 1015.2 hPa 0 mm - 308 W/m² -
1788562506 31.67° C 74% 1015.2 hPa 0 mm - 308 W/m² -
1788562444 31.67° C 74% 1015.1 hPa 0 mm - 310 W/m² -
1788562385 31.67° C 74% 1015.1 hPa 0 mm - 311 W/m² -
1788562324 31.67° C 74% 1015.1 hPa 0 mm - 317 W/m² -
1788562266 31.67° C 75% 1015.2 hPa 0 mm - 327 W/m² -
1788562206 31.67° C 75% 1015.2 hPa 0 mm - 331 W/m² -
1788562144 31.67° C 75% 1015.1 hPa 0 mm - 336 W/m² -
1788562086 31.67° C 75% 1015.3 hPa 0 mm - 341 W/m² -
1788562024 31.67° C 75% 1015.3 hPa 0 mm - 345 W/m² -
1788561964 31.67° C 75% 1015.2 hPa 0 mm - 350 W/m² -
1788561904 31.67° C 75% 1015.3 hPa 0 mm - 353 W/m² -
1788561844 31.67° C 75% 1015.3 hPa 0 mm - 359 W/m² -
1788561784 31.67° C 75% 1015.2 hPa 0 mm - 364 W/m² -
1788561724 31.67° C 75% 1015.3 hPa 0 mm - 368 W/m² -
1788561665 31.67° C 75% 1015.3 hPa 0 mm - 371 W/m² -
1788561604 31.67° C 75% 1015.3 hPa 0 mm - 378 W/m² -

* Rain latest hour (hover to see other rain measurements)
** Current wind speed in m/s (hover to see current wind gust speed)